When you browse on this site, cookies collect data to enhance your experience and personalize the content and advertising you see.
Visit our Privacy Policy to learn more. By continuing to use the site, you agree to this use of cookies and data.
  • In Czech Republic
  • List of Countries
  • For 7 days
  • Water Temperature
  • Weather Map
  • Weather Widgets
  • user-avatar
    Login

    Hourly Weather Mazari Sharif

    Today, 3 June, Wednesday

    Time Temperature Precipitation Wind Pressure Humidity
    00:00 +24°C° 0 mm 1 mps 653 mmHg 21%
    01:00 +24°C° 0 mm 1 mps 652 mmHg 21%
    02:00 +23°C° 0 mm 1 mps 652 mmHg 21%
    03:00 +23°C° 0 mm 1 mps 652 mmHg 21%
    04:00 +23°C° 0 mm 1 mps 651 mmHg 22%
    05:00 +24°C° 0 mm 1 mps 652 mmHg 20%
    06:00 +26°C° 0 mm 2 mps 653 mmHg 18%
    07:00 +28°C° 0 mm 2 mps 654 mmHg 15%
    08:00 +29°C° 0 mm 2 mps 654 mmHg 14%
    09:00 +30°C° 0 mm 2 mps 654 mmHg 14%
    10:00 +31°C° 0 mm 3 mps 654 mmHg 13%
    11:00 +31°C° 0 mm 3 mps 654 mmHg 13%
    12:00 +33°C° 0 mm 3 mps 654 mmHg 13%
    13:00 +33°C° 0 mm 3 mps 654 mmHg 12%
    14:00 +33°C° 0 mm 3 mps 654 mmHg 12%
    15:00 +33°C° 0 mm 3 mps 654 mmHg 12%
    16:00 +33°C° 0 mm 3 mps 653 mmHg 12%
    17:00 +31°C° 0 mm 3 mps 653 mmHg 14%
    18:00 +30°C° 0 mm 2 mps 653 mmHg 16%
    19:00 +28°C° 0 mm 1 mps 653 mmHg 18%
    20:00 +28°C° 0 mm 1 mps 653 mmHg 18%
    21:00 +27°C° 0 mm 1 mps 653 mmHg 18%
    22:00 +26°C° 0 mm 2 mps 653 mmHg 19%
    23:00 +26°C° 0 mm 2 mps 653 mmHg 19%

    Tomorrow, 4 June, Thursday

    Time Temperature Precipitation Wind Pressure Humidity
    00:00 +25°C° 0 mm 2 mps 652 mmHg 19%
    01:00 +25°C° 0 mm 2 mps 652 mmHg 20%
    02:00 +25°C° 0 mm 2 mps 652 mmHg 20%
    03:00 +24°C° 0 mm 2 mps 652 mmHg 20%
    04:00 +24°C° 0 mm 2 mps 652 mmHg 21%
    05:00 +26°C° 0 mm 2 mps 653 mmHg 19%
    06:00 +27°C° 0 mm 2 mps 653 mmHg 18%
    07:00 +29°C° 0 mm 2 mps 654 mmHg 16%
    08:00 +30°C° 0 mm 3 mps 654 mmHg 15%
    09:00 +31°C° 0 mm 3 mps 655 mmHg 14%
    10:00 +33°C° 0 mm 3 mps 655 mmHg 12%
    11:00 +34°C° 0 mm 4 mps 655 mmHg 12%
    12:00 +34°C° 0 mm 5 mps 655 mmHg 12%
    13:00 +35°C° 0 mm 5 mps 654 mmHg 12%
    14:00 +35°C° 0 mm 5 mps 654 mmHg 12%
    15:00 +35°C° 0 mm 4 mps 654 mmHg 11%
    16:00 +35°C° 0 mm 4 mps 654 mmHg 11%
    17:00 +33°C° 0 mm 3 mps 654 mmHg 13%
    18:00 +31°C° 0 mm 2 mps 654 mmHg 15%
    19:00 +29°C° 0 mm 1 mps 653 mmHg 17%
    20:00 +29°C° 0 mm 1 mps 653 mmHg 17%
    21:00 +28°C° 0 mm 1 mps 653 mmHg 18%
    22:00 +27°C° 0 mm 1 mps 653 mmHg 18%
    23:00 +27°C° 0 mm 2 mps 653 mmHg 18%

    Day after tomorrow, 5 June, Friday

    Time Temperature Precipitation Wind Pressure Humidity
    00:00 +26°C° 0 mm 2 mps 653 mmHg 18%
    01:00 +26°C° 0 mm 2 mps 652 mmHg 18%
    02:00 +25°C° 0 mm 2 mps 652 mmHg 19%
    03:00 +25°C° 0 mm 2 mps 652 mmHg 20%
    04:00 +24°C° 0 mm 2 mps 652 mmHg 21%
    05:00 +26°C° 0 mm 2 mps 653 mmHg 19%
    06:00 +28°C° 0 mm 2 mps 654 mmHg 17%
    07:00 +29°C° 0 mm 2 mps 654 mmHg 15%
    08:00 +31°C° 0 mm 2 mps 655 mmHg 14%
    09:00 +32°C° 0 mm 2 mps 655 mmHg 14%
    10:00 +34°C° 0 mm 3 mps 655 mmHg 13%
    11:00 +35°C° 0 mm 3 mps 655 mmHg 12%
    12:00 +35°C° 0 mm 3 mps 655 mmHg 12%
    13:00 +36°C° 0 mm 4 mps 655 mmHg 11%
    14:00 +36°C° 0 mm 4 mps 655 mmHg 10%
    15:00 +36°C° 0 mm 4 mps 655 mmHg 10%
    16:00 +36°C° 0 mm 4 mps 655 mmHg 9%
    17:00 +35°C° 0 mm 3 mps 654 mmHg 12%
    18:00 +32°C° 0 mm 2 mps 654 mmHg 15%
    19:00 +30°C° 0 mm 1 mps 653 mmHg 17%
    20:00 +30°C° 0 mm 1 mps 653 mmHg 17%
    21:00 +29°C° 0 mm 1 mps 653 mmHg 17%
    22:00 +28°C° 0 mm 2 mps 653 mmHg 17%
    23:00 +28°C° 0 mm 2 mps 653 mmHg 18%

    6 June, Saturday

    Time Temperature Precipitation Wind Pressure Humidity
    00:00 +27°C° 0 mm 2 mps 653 mmHg 19%
    01:00 +27°C° 0 mm 1 mps 653 mmHg 19%
    02:00 +26°C° 0 mm 2 mps 653 mmHg 20%
    03:00 +25°C° 0 mm 2 mps 653 mmHg 20%
    04:00 +25°C° 0 mm 2 mps 653 mmHg 21%
    05:00 +26°C° 0 mm 3 mps 653 mmHg 20%
    06:00 +28°C° 0 mm 3 mps 654 mmHg 18%
    07:00 +29°C° 0 mm 4 mps 655 mmHg 17%
    08:00 +32°C° 0 mm 5 mps 655 mmHg 15%
    09:00 +33°C° 0 mm 7 mps 655 mmHg 14%
    10:00 +34°C° 0 mm 9 mps 656 mmHg 12%
    11:00 +34°C° 0 mm 9 mps 656 mmHg 11%
    12:00 +35°C° 0 mm 9 mps 656 mmHg 10%
    13:00 +37°C° 0 mm 9 mps 656 mmHg 9%
    14:00 +37°C° 0 mm 10 mps 655 mmHg 9%
    15:00 +37°C° 0 mm 10 mps 655 mmHg 9%
    16:00 +36°C° 0 mm 10 mps 655 mmHg 9%
    17:00 +34°C° 0 mm 9 mps 655 mmHg 10%
    18:00 +33°C° 0 mm 7 mps 654 mmHg 11%
    19:00 +30°C° 0 mm 5 mps 654 mmHg 13%
    20:00 +29°C° 0 mm 5 mps 654 mmHg 14%
    21:00 +28°C° 0 mm 4 mps 654 mmHg 15%
    22:00 +28°C° 0 mm 4 mps 654 mmHg 16%
    23:00 +27°C° 0 mm 4 mps 654 mmHg 18%

    7 June, Sunday

    Time Temperature Precipitation Wind Pressure Humidity
    00:00 +26°C° 0 mm 4 mps 653 mmHg 19%
    01:00 +26°C° 0 mm 4 mps 653 mmHg 20%
    02:00 +25°C° 0 mm 3 mps 653 mmHg 21%
    03:00 +25°C° 0 mm 3 mps 653 mmHg 22%
    04:00 +24°C° 0 mm 3 mps 653 mmHg 23%
    05:00 +26°C° 0 mm 4 mps 653 mmHg 21%
    06:00 +27°C° 0 mm 4 mps 654 mmHg 20%
    07:00 +29°C° 0 mm 4 mps 654 mmHg 18%
    08:00 +30°C° 0 mm 5 mps 655 mmHg 18%
    09:00 +32°C° 0 mm 7 mps 655 mmHg 17%
    10:00 +33°C° 0 mm 8 mps 656 mmHg 16%
    11:00 +34°C° 0 mm 8 mps 656 mmHg 15%
    12:00 +35°C° 0 mm 8 mps 656 mmHg 14%
    13:00 +35°C° 0 mm 8 mps 656 mmHg 14%
    14:00 +35°C° 0 mm 8 mps 655 mmHg 14%
    15:00 +35°C° 0 mm 8 mps 655 mmHg 14%
    16:00 +35°C° 0 mm 8 mps 655 mmHg 14%
    17:00 +33°C° 0 mm 7 mps 654 mmHg 15%
    18:00 +32°C° 0 mm 5 mps 654 mmHg 16%
    19:00 +30°C° 0 mm 4 mps 654 mmHg 17%
    20:00 +28°C° 0 mm 3 mps 654 mmHg 19%
    21:00 +27°C° 0 mm 2 mps 653 mmHg 21%
    22:00 +26°C° 0 mm 1 mps 653 mmHg 23%
    23:00 +26°C° 0 mm 1 mps 653 mmHg 24%

    8 June, Monday

    Time Temperature Precipitation Wind Pressure Humidity
    00:00 +25°C° 0 mm 1 mps 653 mmHg 24%
    01:00 +25°C° 0 mm 2 mps 652 mmHg 25%
    02:00 +24°C° 0 mm 2 mps 652 mmHg 26%
    03:00 +24°C° 0 mm 2 mps 652 mmHg 26%
    04:00 +24°C° 0 mm 2 mps 652 mmHg 27%
    05:00 +25°C° 0 mm 2 mps 653 mmHg 27%
    06:00 +26°C° 0 mm 3 mps 653 mmHg 27%
    07:00 +27°C° 0 mm 3 mps 654 mmHg 27%
    08:00 +28°C° 0 mm 4 mps 654 mmHg 27%
    09:00 +29°C° 0 mm 4 mps 654 mmHg 27%
    10:00 +29°C° 0 mm 4 mps 654 mmHg 28%
    11:00 +30°C° 0 mm 5 mps 654 mmHg 26%
    12:00 +32°C° 0 mm 5 mps 654 mmHg 24%
    13:00 +32°C° 0 mm 5 mps 654 mmHg 23%
    14:00 +32°C° 0 mm 6 mps 654 mmHg 23%
    15:00 +32°C° 0 mm 7 mps 654 mmHg 23%
    16:00 +32°C° 0 mm 7 mps 654 mmHg 23%
    17:00 +29°C° 0 mm 7 mps 654 mmHg 25%
    18:00 +27°C° 0 mm 6 mps 654 mmHg 28%
    19:00 +25°C° 0 mm 5 mps 654 mmHg 30%
    20:00 +25°C° 0 mm 4 mps 654 mmHg 33%
    21:00 +24°C° 0 mm 3 mps 654 mmHg 35%
    22:00 +23°C° 0 mm 2 mps 654 mmHg 38%
    23:00 +23°C° 0 mm 2 mps 654 mmHg 38%
    Show more